,,PA_Meas_PMT16A,,PR_Meas_QMR101_102,,RH_Meas_QMH101,,SR_Meas_QMS101,,TA_Meas_QMH101,,GenWind,,GenWind,
time,status,PA,status,PR,status,RH,status,SR,status,TA,status,DirAvg,status,SpdAvg,
2013-01-26, 07:24:04,VALID,923.212,VALID,0,VALID,97.2062,VALID,71.9856,VALID,19.8813,VALID,168,VALID,0.762109,
2013-01-26, 07:25:04,INVALID,919.176,VALID,0,VALID,97.229,VALID,76.2832,VALID,19.9008,VALID,168,VALID,0.989062,
2013-01-26, 07:26:04,VALID,920.602,VALID,0,VALID,97.1833,VALID,80.2585,VALID,19.8798,VALID,168,VALID,0.564844,
2013-01-26, 07:27:04,INVALID,923.293,VALID,0,VALID,97.2062,VALID,84.019,VALID,19.9008,VALID,168,VALID,0.819141,
2013-01-26, 07:28:04,VALID,921.615,VALID,0,VALID,97.2138,VALID,88.2092,VALID,19.9383,VALID,168,VALID,0.285156,
2013-01-26, 07:29:04,VALID,919.615,VALID,0,VALID,97.2062,VALID,93.6887,VALID,19.9984,VALID,168,VALID,0.502734,
2013-01-26, 07:30:04,VALID,919.527,VALID,0,VALID,97.2062,VALID,101.21,VALID,19.9773,VALID,167,VALID,0.963281,
2013-01-26, 07:31:04,VALID,919.555,VALID,0,VALID,97.1833,VALID,110.45,VALID,19.9773,VALID,167,VALID,0.815234,
2013-01-26, 07:32:04,VALID,919.584,VALID,0,VALID,97.1833,VALID,119.367,VALID,20.0374,VALID,167,VALID,0.486328,
2013-01-26, 07:33:04,VALID,919.537,VALID,0,VALID,97.1757,VALID,127.748,VALID,20.0163,VALID,167,VALID,1.34063,
2013-01-26, 07:34:04,VALID,919.612,VALID,0,VALID,97.1528,VALID,135.268,VALID,20.0959,VALID,128,VALID,1.25273,
2013-01-26, 07:35:04,VALID,919.64,VALID,0,VALID,97.1299,VALID,142.037,VALID,20.1529,VALID,150,VALID,0.0933594,
2013-01-26, 07:36:04,VALID,919.587,VALID,0,VALID,97.1223,VALID,148.376,VALID,20.1724,VALID,141,VALID,0.719531,
2013-01-26, 07:37:04,VALID,919.572,VALID,0,VALID,97.1147,VALID,152.889,VALID,20.1934,VALID,153,VALID,0.505469,
2013-01-26, 07:38:04,VALID,919.615,VALID,0,VALID,97.1071,VALID,158.798,VALID,20.2909,VALID,137,VALID,0.549219,
2013-01-26, 07:39:04,VALID,919.631,VALID,0,VALID,97.0918,VALID,166.749,VALID,20.2699,VALID,162,VALID,1.15508,
2013-01-26, 07:40:04,VALID,919.696,VALID,0,VALID,97.0385,VALID,173.732,VALID,20.2504,VALID,122,VALID,1.37852,
2013-01-26, 07:41:04,VALID,919.708,VALID,0,VALID,97.0156,VALID,177.6,VALID,20.3089,VALID,145,VALID,1.2793,
2013-01-26, 07:42:04,VALID,919.772,VALID,0,VALID,97.0003,VALID,178.352,VALID,20.3479,VALID,136,VALID,0.373047,
2013-01-26, 07:43:04,VALID,919.607,VALID,0,VALID,96.9851,VALID,175.774,VALID,20.3885,VALID,181,VALID,0.619922,
2013-01-26, 07:44:04,VALID,919.797,VALID,0,VALID,96.9622,VALID,171.691,VALID,20.3869,VALID,138,VALID,1.12695,
2013-01-26, 07:45:04,VALID,919.78,VALID,0,VALID,96.9089,VALID,167.393,VALID,20.4064,VALID,112,VALID,0.849219,
2013-01-26, 07:46:04,VALID,919.66,VALID,0,VALID,96.9165,VALID,163.848,VALID,20.4845,VALID,192,VALID,0.654297,
2013-01-26, 07:47:04,VALID,919.763,VALID,0,VALID,96.886,VALID,162.773,VALID,20.4634,VALID,173,VALID,1.03984,
2013-01-26, 07:48:04,VALID,919.787,VALID,0,VALID,96.8555,VALID,166.641,VALID,20.465,VALID,179,VALID,0.83125,
2013-01-26, 07:49:04,VALID,919.722,VALID,0,VALID,96.8021,VALID,182.65,VALID,20.504,VALID,180,VALID,0.337109,
2013-01-26, 07:50:04,VALID,919.751,VALID,0,VALID,96.8021,VALID,180.394,VALID,20.5235,VALID,141,VALID,0.902344,
2013-01-26, 07:51:04,VALID,919.784,VALID,0,VALID,96.7107,VALID,172.336,VALID,20.4845,VALID,120,VALID,0.847656,
2013-01-26, 07:52:04,VALID,919.749,VALID,0,VALID,96.6573,VALID,166.964,VALID,20.5235,VALID,119,VALID,0.450781,
2013-01-26, 07:53:04,VALID,919.75,VALID,0,VALID,96.6115,VALID,168.897,VALID,20.5235,VALID,174,VALID,1.06758,
2013-01-26, 07:54:04,VALID,919.768,VALID,0,VALID,96.5734,VALID,179.534,VALID,20.543,VALID,123,VALID,0.228906,
2013-01-26, 07:55:04,VALID,919.782,VALID,0,VALID,96.5582,VALID,197.155,VALID,20.543,VALID,157,VALID,1.18633,
2013-01-26, 07:56:04,VALID,919.81,VALID,0,VALID,96.5124,VALID,275.264,VALID,20.5609,VALID,122,VALID,0.573828,
2013-01-26, 07:57:04,VALID,919.853,VALID,0,VALID,96.5353,VALID,281.173,VALID,20.6194,VALID,171,VALID,1.34219,
2013-01-26, 07:58:04,VALID,919.889,VALID,0,VALID,96.4667,VALID,264.842,VALID,20.6585,VALID,152,VALID,1.24492,
2013-01-26, 07:59:04,VALID,919.935,VALID,0,VALID,96.4057,VALID,264.842,VALID,20.7381,VALID,166,VALID,1.20234,
2013-01-26, 08:00:04,VALID,919.828,VALID,0,VALID,96.2304,VALID,219.502,VALID,20.7185,VALID,134,VALID,1.4125,
2013-01-26, 08:01:04,VALID,919.9,VALID,0,VALID,96.055,VALID,186.625,VALID,20.7381,VALID,171,VALID,2.03906,
2013-01-26, 08:02:04,VALID,919.904,VALID,0,VALID,95.9026,VALID,163.525,VALID,20.7381,VALID,164,VALID,1.09492,
2013-01-26, 08:03:04,VALID,919.977,VALID,0,VALID,95.6586,VALID,148.269,VALID,20.6975,VALID,167,VALID,1.85039,
2013-01-26, 08:04:04,VALID,920.026,VALID,0,VALID,95.5062,VALID,139.459,VALID,20.66,VALID,167,VALID,1.56289,
2013-01-26, 08:05:04,VALID,920.091,VALID,0,VALID,95.3994,VALID,131.186,VALID,20.5999,VALID,172,VALID,1.82734,
2013-01-26, 08:06:04,VALID,920.035,VALID,0,VALID,95.2698,VALID,119.26,VALID,20.5414,VALID,161,VALID,1.60742,
2013-01-26, 08:07:04,VALID,920.091,VALID,0,VALID,95.2775,VALID,106.797,VALID,20.5625,VALID,146,VALID,1.31719,
2013-01-26, 08:08:04,VALID,920.122,VALID,0,VALID,95.0716,VALID,100.35,VALID,20.5024,VALID,151,VALID,1.60273,
2013-01-26, 08:09:04,VALID,920.219,VALID,0,VALID,95.064,VALID,98.8459,VALID,20.5235,VALID,128,VALID,0.697266,
2013-01-26, 08:10:04,VALID,920.129,VALID,0,VALID,95.125,VALID,99.1682,VALID,20.5235,VALID,144,VALID,0.994141,
2013-01-26, 08:11:04,VALID,918.683,VALID,0,VALID,94.9649,VALID,99.8128,VALID,20.5024,VALID,100,VALID,1.95586,
2013-01-26, 08:12:04,VALID,920.136,VALID,0,VALID,94.9725,VALID,101.424,VALID,20.5024,VALID,150,VALID,1.46602,
2013-01-26, 08:13:04,VALID,920.172,VALID,0,VALID,94.9878,VALID,103.466,VALID,20.504,VALID,132,VALID,0.973828,
2013-01-26, 08:14:04,VALID,920.116,VALID,0,VALID,95.0106,VALID,106.582,VALID,20.5024,VALID,133,VALID,1.08398,
2013-01-26, 08:15:04,VALID,920.213,VALID,0,VALID,94.9115,VALID,110.45,VALID,20.5235,VALID,138,VALID,1.39492,
2013-01-26, 08:16:04,VALID,919.254,VALID,0,VALID,95.0564,VALID,115.607,VALID,20.5625,VALID,160,VALID,0.665234,
2013-01-26, 08:17:04,VALID,920.175,VALID,0,VALID,94.8963,VALID,121.301,VALID,20.5625,VALID,165,VALID,1.00547,
2013-01-26, 08:18:04,VALID,920.183,VALID,0,VALID,94.7743,VALID,127.64,VALID,20.582,VALID,131,VALID,1.17969,
2013-01-26, 08:19:04,VALID,920.187,VALID,0,VALID,94.8429,VALID,133.549,VALID,20.6015,VALID,159,VALID,1.1293,
2013-01-26, 08:20:04,VALID,920.158,VALID,0,VALID,94.7514,VALID,138.814,VALID,20.6421,VALID,169,VALID,1.06992,
2013-01-26, 08:21:04,VALID,920.211,VALID,0,VALID,94.5532,VALID,142.145,VALID,20.621,VALID,155,VALID,1.09687,
2013-01-26, 08:22:04,VALID,920.182,VALID,0,VALID,94.7209,VALID,144.401,VALID,20.66,VALID,174,VALID,1.10703,
2013-01-26, 08:23:04,VALID,920.197,VALID,0,VALID,94.6752,VALID,146.227,VALID,20.6795,VALID,162,VALID,1.1332,
2013-01-26, 08:24:04,VALID,920.212,VALID,0,VALID,94.8353,VALID,147.517,VALID,20.717,VALID,155,VALID,0.809375,
2013-01-26, 08:25:04,VALID,920.164,VALID,0,VALID,94.7591,VALID,149.128,VALID,20.7365,VALID,176,VALID,0.678516,
2013-01-26, 08:26:04,VALID,920.159,VALID,0,VALID,94.7286,VALID,150.74,VALID,20.7365,VALID,135,VALID,0.795313,
2013-01-26, 08:27:04,VALID,920.168,VALID,0,VALID,94.7133,VALID,153.319,VALID,20.7755,VALID,171,VALID,1.95195,
2013-01-26, 08:28:04,VALID,920.213,VALID,0,VALID,94.3703,VALID,158.691,VALID,20.8145,VALID,127,VALID,1.15117,
2013-01-26, 08:29:04,VALID,920.106,VALID,0,VALID,94.4389,VALID,167.071,VALID,20.873,VALID,181,VALID,1.20469,
2013-01-26, 08:30:04,VALID,920.166,VALID,0,VALID,94.1797,VALID,181.038,VALID,20.8535,VALID,178,VALID,1.26406,
2013-01-26, 08:31:04,VALID,920.162,VALID,0,VALID,94.1492,VALID,196.08,VALID,20.8925,VALID,145,VALID,1.09258,
2013-01-26, 08:32:04,VALID,920.179,VALID,0,VALID,93.9281,VALID,213.915,VALID,20.9316,VALID,165,VALID,1.21367,
2013-01-26, 08:33:04,VALID,920.119,VALID,0,VALID,93.12,VALID,256.569,VALID,20.912,VALID,133,VALID,1.48086,
2013-01-26, 08:34:04,VALID,920.184,VALID,0,VALID,93.425,VALID,284.719,VALID,21.0096,VALID,141,VALID,0.742969,
2013-01-26, 08:35:04,VALID,920.255,VALID,0,VALID,93.6079,VALID,310.397,VALID,21.1282,VALID,120,VALID,1.29023,
2013-01-26, 08:36:04,VALID,920.215,VALID,0,VALID,93.425,VALID,324.58,VALID,21.1852,VALID,117,VALID,1.23438,
2013-01-26, 08:37:04,VALID,920.287,VALID,0,VALID,93.2954,VALID,399.681,VALID,21.2437,VALID,135,VALID,1.75703,
2013-01-26, 08:38:04,VALID,920.159,VALID,0,VALID,93.5012,VALID,417.731,VALID,21.3803,VALID,124,VALID,1.30859,
2013-01-26, 08:39:04,VALID,920.172,VALID,0,VALID,93.3564,VALID,443.517,VALID,21.4957,VALID,112,VALID,1.50547,
2013-01-26, 08:40:04,VALID,920.308,VALID,0,VALID,93.4783,VALID,461.352,VALID,21.6518,VALID,138,VALID,1.05469,
2013-01-26, 08:41:04,VALID,920.228,VALID,0,VALID,91.5039,VALID,464.898,VALID,21.6729,VALID,131,VALID,1.85781,
2013-01-26, 08:42:04,VALID,920.229,VALID,0,VALID,92.4568,VALID,471.559,VALID,21.8095,VALID,86,VALID,0.864453,
2013-01-26, 08:43:04,VALID,920.197,VALID,0,VALID,90.7796,VALID,498.312,VALID,21.829,VALID,113,VALID,1.58125,
2013-01-26, 08:44:04,VALID,920.256,VALID,0,VALID,91.298,VALID,503.362,VALID,21.9673,VALID,110,VALID,0.910547,
2013-01-26, 08:45:04,VALID,920.224,VALID,0,VALID,92.0985,VALID,509.486,VALID,22.1217,VALID,60,VALID,1.12734,
2013-01-26, 08:46:04,VALID,920.241,VALID,0,VALID,91.2752,VALID,528.61,VALID,22.2388,VALID,141,VALID,1.19844,
2013-01-26, 08:47:04,VALID,920.182,VALID,0,VALID,90.8101,VALID,524.098,VALID,22.3754,VALID,132,VALID,1.03984,
2013-01-26, 08:48:04,VALID,920.207,VALID,0,VALID,88.9271,VALID,527.214,VALID,22.4145,VALID,135,VALID,1.73125,
2013-01-26, 08:49:04,VALID,920.109,VALID,0,VALID,90.3985,VALID,527.858,VALID,22.5121,VALID,131,VALID,0.531641,
2013-01-26, 08:50:04,VALID,920.246,VALID,0,VALID,88.8967,VALID,569.653,VALID,22.6096,VALID,147,VALID,0.863672,
2013-01-26, 08:51:04,VALID,920.14,VALID,0,VALID,88.0276,VALID,569.223,VALID,22.5884,VALID,127,VALID,1.51719,
2013-01-26, 08:52:04,VALID,920.134,VALID,0,VALID,89.6361,VALID,513.891,VALID,22.7463,VALID,185,VALID,0.212891,
2013-01-26, 08:53:04,VALID,920.135,VALID,0,VALID,90.3985,VALID,514.536,VALID,22.9983,VALID,155,VALID,0.467969,
2013-01-26, 08:54:04,VALID,920.139,VALID,0,VALID,88.4545,VALID,535.916,VALID,23.2147,VALID,122,VALID,0.792188,
2013-01-26, 08:55:04,VALID,920.104,VALID,0,VALID,86.8917,VALID,551.818,VALID,23.2928,VALID,179,VALID,1.18047,
2013-01-26, 08:56:04,VALID,920.145,VALID,0,VALID,84.1625,VALID,540.214,VALID,23.3727,VALID,138,VALID,1.425,
2013-01-26, 08:57:04,VALID,919.883,VALID,0,VALID,83.9338,VALID,440.401,VALID,23.2343,VALID,96,VALID,1.69453,
2013-01-26, 08:58:04,VALID,920.181,VALID,0,VALID,83.8423,VALID,370.887,VALID,23,VALID,85,VALID,1.19258,
2013-01-26, 08:59:04,VALID,919.996,VALID,0,VALID,86.0455,VALID,388.722,VALID,22.9007,VALID,97,VALID,1.56836,
2013-01-26, 09:00:04,VALID,920.148,VALID,0,VALID,86.2513,VALID,397.103,VALID,22.8616,VALID,90,VALID,0.992969,
2013-01-26, 09:01:04,VALID,920.198,VALID,0,VALID,85.7329,VALID,387.218,VALID,22.8243,VALID,124,VALID,1.54062,
2013-01-26, 09:02:04,VALID,919.137,VALID,0,VALID,87.3262,VALID,336.721,VALID,22.8829,VALID,58,VALID,0.880859,
2013-01-26, 09:03:04,VALID,919.787,VALID,0,VALID,86.5868,VALID,314.265,VALID,22.8829,VALID,42,VALID,2.15664,
2013-01-26, 09:04:04,VALID,919.91,VALID,0,VALID,86.6325,VALID,303.306,VALID,22.9024,VALID,155,VALID,1.49531,
2013-01-26, 09:05:04,INVALID,917.679,VALID,0,VALID,85.2984,VALID,293.852,VALID,22.8048,VALID,184,VALID,1.87031,
2013-01-26, 09:06:04,VALID,920.668,VALID,0,VALID,85.8854,VALID,277.091,VALID,22.7445,VALID,164,VALID,1.16367,
2013-01-26, 09:07:04,VALID,920.242,VALID,0,VALID,86.3276,VALID,262.909,VALID,22.686,VALID,133,VALID,1.98281,
2013-01-26, 09:08:04,VALID,920.091,VALID,0,VALID,85.7787,VALID,256.784,VALID,22.6096,VALID,149,VALID,1.37422,
2013-01-26, 09:09:04,VALID,920.105,VALID,0,VALID,85.9921,VALID,254.636,VALID,22.5884,VALID,134,VALID,1.49102,
2013-01-26, 09:10:04,VALID,920.099,VALID,0,VALID,86.198,VALID,252.916,VALID,22.5511,VALID,97,VALID,1.54961,
2013-01-26, 09:11:04,VALID,919.633,VALID,0,VALID,87.1204,VALID,250.983,VALID,22.4908,VALID,104,VALID,1.2793,
2013-01-26, 09:12:04,VALID,920.046,VALID,0,VALID,86.6554,VALID,248.619,VALID,22.473,VALID,93,VALID,2.30586,
2013-01-26, 09:13:04,VALID,920.192,VALID,0,VALID,87.9437,VALID,245.181,VALID,22.3754,VALID,104,VALID,1.19453,
2013-01-26, 09:14:04,VALID,920.038,VALID,0,VALID,88.5155,VALID,243.784,VALID,22.3737,VALID,129,VALID,1.29648,
2013-01-26, 09:15:04,VALID,920.06,VALID,0,VALID,88.02,VALID,242.817,VALID,22.3933,VALID,172,VALID,1.29453,
2013-01-26, 09:16:04,VALID,920.076,VALID,0,VALID,87.4634,VALID,241.313,VALID,22.4323,VALID,177,VALID,1.30859,
2013-01-26, 09:17:04,VALID,919.542,VALID,0,VALID,86.3047,VALID,239.916,VALID,22.4128,VALID,155,VALID,1.85742,
2013-01-26, 09:18:04,VALID,920.005,VALID,0,VALID,86.4343,VALID,238.09,VALID,22.4518,VALID,180,VALID,1.47734,
2013-01-26, 09:19:04,VALID,919.982,VALID,0,VALID,86.7621,VALID,236.908,VALID,22.5511,VALID,188,VALID,1.05898,
2013-01-26, 09:20:04,VALID,919.908,VALID,0,VALID,85.9083,VALID,235.833,VALID,22.5494,VALID,141,VALID,1.17891,
2013-01-26, 09:21:04,VALID,920.01,VALID,0,VALID,85.2679,VALID,234.329,VALID,22.5494,VALID,129,VALID,1.40625,
2013-01-26, 09:22:04,VALID,920.054,VALID,0,VALID,86.9527,VALID,232.718,VALID,22.4908,VALID,146,VALID,0.631641,
2013-01-26, 09:23:04,VALID,919.967,VALID,0,VALID,86.8002,VALID,231.536,VALID,22.5103,VALID,120,VALID,0.771484,
2013-01-26, 09:24:04,VALID,919.992,VALID,0,VALID,85.9616,VALID,229.924,VALID,22.5689,VALID,155,VALID,1.19492,
2013-01-26, 09:25:04,VALID,919.939,VALID,0,VALID,84.8486,VALID,228.527,VALID,22.5689,VALID,137,VALID,2.27187,
2013-01-26, 09:26:04,VALID,919.996,VALID,0,VALID,85.4204,VALID,226.808,VALID,22.5511,VALID,166,VALID,1.14609,
2013-01-26, 09:27:04,VALID,919.925,VALID,0,VALID,84.4979,VALID,225.734,VALID,22.5494,VALID,124,VALID,2.37578,
2013-01-26, 09:28:04,VALID,919.893,VALID,0,VALID,85.024,VALID,224.337,VALID,22.5494,VALID,119,VALID,1.48672,
2013-01-26, 09:29:04,VALID,919.986,VALID,0,VALID,86.2208,VALID,223.048,VALID,22.5901,VALID,127,VALID,0.873438,
2013-01-26, 09:30:04,VALID,920.087,VALID,0,VALID,85.0011,VALID,221.759,VALID,22.6292,VALID,135,VALID,1.68203,
2013-01-26, 09:31:04,VALID,919.923,VALID,0,VALID,85.6491,VALID,220.684,VALID,22.6274,VALID,147,VALID,1.37812,
2013-01-26, 09:32:04,VALID,919.869,VALID,0,VALID,83.3697,VALID,219.61,VALID,22.5689,VALID,112,VALID,2.08789,
2013-01-26, 09:33:04,VALID,919.878,VALID,0,VALID,84.437,VALID,218.858,VALID,22.5299,VALID,126,VALID,1.66641,
2013-01-26, 09:34:04,VALID,919.791,VALID,0,VALID,84.8715,VALID,217.998,VALID,22.5299,VALID,145,VALID,0.774219,
2013-01-26, 09:35:04,VALID,919.935,VALID,0,VALID,85.0773,VALID,217.139,VALID,22.5706,VALID,151,VALID,1.06953,
2013-01-26, 09:36:04,VALID,919.776,VALID,0,VALID,84.0787,VALID,216.816,VALID,22.5494,VALID,132,VALID,1.83906,
2013-01-26, 09:37:04,VALID,919.943,VALID,0,VALID,83.2325,VALID,216.064,VALID,22.4908,VALID,128,VALID,2.81016,
2013-01-26, 09:38:04,VALID,919.955,VALID,0,VALID,84.0787,VALID,215.527,VALID,22.4128,VALID,100,VALID,2.06602,
2013-01-26, 09:39:04,VALID,919.839,VALID,0,VALID,85.7787,VALID,214.99,VALID,22.4518,VALID,126,VALID,1.61328,
2013-01-26, 09:40:04,VALID,919.825,VALID,0,VALID,85.9693,VALID,214.453,VALID,22.4518,VALID,73,VALID,1.43555,
2013-01-26, 09:41:04,VALID,919.721,VALID,0,VALID,84.5742,VALID,214.023,VALID,22.4518,VALID,108,VALID,1.84844,
2013-01-26, 09:42:04,VALID,919.718,VALID,0,VALID,85.8702,VALID,213.7,VALID,22.4323,VALID,119,VALID,1.93867,
2013-01-26, 09:43:04,VALID,919.765,VALID,0,VALID,84.8334,VALID,212.948,VALID,22.4128,VALID,179,VALID,0.99375,
2013-01-26, 09:44:04,VALID,919.871,VALID,0,VALID,84.3302,VALID,212.626,VALID,22.4518,VALID,150,VALID,1.10039,
2013-01-26, 09:45:04,VALID,919.755,VALID,0,VALID,84.5284,VALID,212.519,VALID,22.4323,VALID,139,VALID,1.91914,
2013-01-26, 09:46:04,VALID,919.737,VALID,0,VALID,85.0621,VALID,212.304,VALID,22.4535,VALID,129,VALID,1.24844,
2013-01-26, 09:47:04,VALID,919.831,VALID,0,VALID,85.1231,VALID,212.196,VALID,22.4908,VALID,143,VALID,1.43125,
2013-01-26, 09:48:04,VALID,919.875,VALID,0,VALID,84.7648,VALID,212.304,VALID,22.5103,VALID,113,VALID,0.677734,
2013-01-26, 09:49:04,VALID,919.799,VALID,0,VALID,83.728,VALID,212.196,VALID,22.4908,VALID,125,VALID,2.99727,
2013-01-26, 09:50:04,VALID,919.645,VALID,0,VALID,84.4979,VALID,212.196,VALID,22.4713,VALID,126,VALID,1.60703,
2013-01-26, 09:51:04,VALID,920.769,VALID,0,VALID,85.3213,VALID,212.411,VALID,22.4323,VALID,123,VALID,1.34727,
2013-01-26, 09:52:04,VALID,919.84,VALID,0,VALID,84.2921,VALID,212.411,VALID,22.4713,VALID,170,VALID,1.63047,
2013-01-26, 09:53:04,VALID,919.707,VALID,0,VALID,84.3302,VALID,212.948,VALID,22.4908,VALID,146,VALID,1.49219,
2013-01-26, 09:54:04,VALID,919.748,VALID,0,VALID,84.3302,VALID,213.271,VALID,22.5299,VALID,117,VALID,1.40937,
2013-01-26, 09:55:04,VALID,919.829,VALID,0,VALID,84.1091,VALID,213.7,VALID,22.4713,VALID,133,VALID,2.36719,
2013-01-26, 09:56:04,VALID,919.837,VALID,0,VALID,84.8944,VALID,214.238,VALID,22.4713,VALID,157,VALID,1.03672,
2013-01-26, 09:57:04,VALID,919.814,VALID,0,VALID,85.3441,VALID,215.097,VALID,22.5689,VALID,122,VALID,1.16602,
2013-01-26, 09:58:04,VALID,919.797,VALID,0,VALID,84.7495,VALID,215.849,VALID,22.5901,VALID,140,VALID,1.91328,
2013-01-26, 09:59:04,VALID,919.876,VALID,0,VALID,84.0939,VALID,217.031,VALID,22.6079,VALID,145,VALID,1.25156,
2013-01-26, 10:00:04,VALID,919.806,VALID,0,VALID,83.0419,VALID,218.106,VALID,22.6274,VALID,162,VALID,1.9082,
2013-01-26, 10:01:04,VALID,919.831,VALID,0,VALID,84.0177,VALID,219.502,VALID,22.6257,VALID,152,VALID,1.47148,
2013-01-26, 10:02:04,VALID,920.404,VALID,0,VALID,84.2692,VALID,221.006,VALID,22.6452,VALID,170,VALID,1.2625,
2013-01-26, 10:03:04,VALID,919.795,VALID,0,VALID,84.3379,VALID,222.833,VALID,22.7055,VALID,166,VALID,1.04297,
2013-01-26, 10:04:04,VALID,919.204,VALID,0,VALID,83.6212,VALID,224.767,VALID,22.725,VALID,154,VALID,1.30508,
2013-01-26, 10:05:04,VALID,919.711,VALID,0,VALID,84.1854,VALID,226.701,VALID,22.725,VALID,147,VALID,1.44961,
2013-01-26, 10:06:04,VALID,919.573,VALID,0,VALID,84.0634,VALID,228.742,VALID,22.686,VALID,129,VALID,1.46406,
2013-01-26, 10:07:04,VALID,919.853,VALID,0,VALID,84.0177,VALID,230.998,VALID,22.686,VALID,117,VALID,1.87656,
2013-01-26, 10:08:04,VALID,919.657,VALID,0,VALID,83.3697,VALID,233.255,VALID,22.686,VALID,135,VALID,2.38438,
2013-01-26, 10:09:04,VALID,919.694,VALID,0,VALID,83.5679,VALID,235.511,VALID,22.7055,VALID,133,VALID,1.56836,
2013-01-26, 10:10:04,VALID,919.731,VALID,0,VALID,83.85,VALID,237.875,VALID,22.7055,VALID,139,VALID,0.797656,
2013-01-26, 10:11:04,VALID,919.665,VALID,0,VALID,83.4612,VALID,240.238,VALID,22.7641,VALID,166,VALID,1.27539,
2013-01-26, 10:12:04,VALID,919.552,VALID,0,VALID,84.3836,VALID,242.817,VALID,22.8421,VALID,141,VALID,0.758203,
2013-01-26, 10:13:04,VALID,919.636,VALID,0,VALID,82.9351,VALID,245.61,VALID,22.9007,VALID,140,VALID,1.33555,
2013-01-26, 10:14:04,VALID,919.557,VALID,0,VALID,83.3697,VALID,248.297,VALID,22.9592,VALID,116,VALID,1.22148,
2013-01-26, 10:15:04,VALID,919.509,VALID,0,VALID,81.9593,VALID,250.66,VALID,22.9592,VALID,155,VALID,1.05625,
2013-01-26, 10:16:04,VALID,919.538,VALID,0,VALID,81.3114,VALID,253.454,VALID,22.9787,VALID,132,VALID,1.55703,
2013-01-26, 10:17:04,VALID,919.502,VALID,0,VALID,82.3634,VALID,256.032,VALID,23.0568,VALID,148,VALID,0.464844,
2013-01-26, 10:18:04,VALID,919.398,VALID,0,VALID,81.136,VALID,258.826,VALID,23.0568,VALID,126,VALID,1.62656,
2013-01-26, 10:19:04,VALID,919.395,VALID,0,VALID,80.2593,VALID,261.619,VALID,22.9983,VALID,130,VALID,1.91875,
2013-01-26, 10:20:04,VALID,919.461,VALID,0,VALID,81.2275,VALID,264.52,VALID,22.9592,VALID,148,VALID,1.76328,
2013-01-26, 10:21:04,VALID,919.458,VALID,0,VALID,82.6226,VALID,267.099,VALID,23.0586,VALID,173,VALID,0.297266,
2013-01-26, 10:22:04,VALID,919.576,VALID,0,VALID,81.1894,VALID,270.215,VALID,23.1544,VALID,162,VALID,1.03516,
2013-01-26, 10:23:04,VALID,919.582,VALID,0,VALID,81.4714,VALID,273.438,VALID,23.213,VALID,165,VALID,0.824609,
2013-01-26, 10:24:04,VALID,919.382,VALID,0,VALID,80.7625,VALID,276.876,VALID,23.1935,VALID,120,VALID,1.25078,
2013-01-26, 10:25:04,VALID,919.493,VALID,0,VALID,81.0369,VALID,280.421,VALID,23.2112,VALID,187,VALID,1.34531,
2013-01-26, 10:26:04,VALID,919.411,VALID,0,VALID,81.6392,VALID,284.504,VALID,23.2911,VALID,213,VALID,0.824219,
2013-01-26, 10:27:04,VALID,919.464,VALID,0,VALID,82.2185,VALID,287.942,VALID,23.4082,VALID,149,VALID,0.417578,
2013-01-26, 10:28:04,VALID,919.467,VALID,0,VALID,79.4055,VALID,291.488,VALID,23.4863,VALID,159,VALID,1.19453,
2013-01-26, 10:29:04,VALID,919.48,VALID,0,VALID,80.5033,VALID,294.389,VALID,23.4082,VALID,147,VALID,1.42813,
2013-01-26, 10:30:04,VALID,919.392,VALID,0,VALID,80.3203,VALID,297.505,VALID,23.4082,VALID,172,VALID,1.41523,
2013-01-26, 10:31:04,VALID,919.487,VALID,0,VALID,81.0903,VALID,300.835,VALID,23.3088,VALID,146,VALID,1.32734,
2013-01-26, 10:32:04,VALID,919.363,VALID,0,VALID,79.5732,VALID,304.058,VALID,23.3496,VALID,135,VALID,2.08125,
2013-01-26, 10:33:04,VALID,919.433,VALID,0,VALID,81.4638,VALID,306.207,VALID,23.2911,VALID,143,VALID,0.916406,
2013-01-26, 10:34:04,VALID,919.409,VALID,0,VALID,81.0598,VALID,308.893,VALID,23.3887,VALID,154,VALID,0.932031,
2013-01-26, 10:35:04,VALID,919.297,VALID,0,VALID,81.1513,VALID,310.935,VALID,23.4667,VALID,141,VALID,0.605859,
2013-01-26, 10:36:04,VALID,919.245,VALID,0,VALID,81.784,VALID,312.117,VALID,23.504,VALID,165,VALID,0.955859,
2013-01-26, 10:37:04,VALID,919.335,VALID,0,VALID,79.5199,VALID,312.654,VALID,23.4863,VALID,166,VALID,1.38398,
2013-01-26, 10:38:04,VALID,919.193,VALID,0,VALID,81.1818,VALID,314.48,VALID,23.4667,VALID,146,VALID,0.653125,
2013-01-26, 10:39:04,VALID,919.2,VALID,0,VALID,80.8158,VALID,316.951,VALID,23.4472,VALID,114,VALID,0.905078,
2013-01-26, 10:40:04,VALID,919.193,VALID,0,VALID,81.7688,VALID,317.703,VALID,23.4277,VALID,116,VALID,0.600391,
2013-01-26, 10:41:04,VALID,919.083,VALID,0,VALID,80.6786,VALID,318.348,VALID,23.465,VALID,159,VALID,1.45586,
2013-01-26, 10:42:04,VALID,919.135,VALID,0,VALID,79.6342,VALID,318.67,VALID,23.5058,VALID,170,VALID,1.54023,
2013-01-26, 10:43:04,VALID,919.12,VALID,0,VALID,82.1728,VALID,319.53,VALID,23.5235,VALID,110,VALID,0.924609,
2013-01-26, 10:44:04,VALID,919.072,VALID,0,VALID,81.9746,VALID,320.067,VALID,23.662,VALID,135,VALID,0.551562,
2013-01-26, 10:45:04,VALID,919.116,VALID,0,VALID,80.0611,VALID,319.53,VALID,23.7596,VALID,177,VALID,1.55117,
2013-01-26, 10:46:04,VALID,919.12,VALID,0,VALID,79.5656,VALID,319.53,VALID,23.7205,VALID,156,VALID,1.18086,
2013-01-26, 10:47:04,VALID,919.165,VALID,0,VALID,79.8248,VALID,318.778,VALID,23.6992,VALID,185,VALID,1.43125,
2013-01-26, 10:48:04,VALID,919.037,VALID,0,VALID,78.849,VALID,318.885,VALID,23.6797,VALID,151,VALID,1.82383,
2013-01-26, 10:49:04,VALID,918.974,VALID,0,VALID,80.4652,VALID,318.456,VALID,23.6034,VALID,198,VALID,1.39141,
2013-01-26, 10:50:04,VALID,919.037,VALID,0,VALID,80.6939,VALID,318.026,VALID,23.6211,VALID,154,VALID,0.830078,
2013-01-26, 10:51:04,VALID,919.1,VALID,0,VALID,80.5871,VALID,317.166,VALID,23.6211,VALID,135,VALID,0.957422,
2013-01-26, 10:52:04,VALID,918.898,VALID,0,VALID,80.8311,VALID,316.522,VALID,23.6424,VALID,180,VALID,0.916797,
2013-01-26, 10:53:04,VALID,918.856,VALID,0,VALID,80.0001,VALID,315.77,VALID,23.6602,VALID,179,VALID,1.36328,
2013-01-26, 10:54:04,VALID,918.916,VALID,0,VALID,79.5656,VALID,314.91,VALID,23.6815,VALID,170,VALID,1.47461,
2013-01-26, 10:55:04,VALID,918.873,VALID,0,VALID,79.4741,VALID,313.621,VALID,23.7614,VALID,135,VALID,1.16406,
2013-01-26, 10:56:04,VALID,918.855,VALID,0,VALID,80.9302,VALID,312.761,VALID,23.74,VALID,111,VALID,1.39141,
2013-01-26, 10:57:04,VALID,918.829,VALID,0,VALID,80.3203,VALID,311.042,VALID,23.701,VALID,191,VALID,1.03203,
2013-01-26, 10:58:04,VALID,918.88,VALID,0,VALID,80.1145,VALID,310.075,VALID,23.7418,VALID,168,VALID,1.41953,